Probability
0 0 0 0 0 0 0 0 0 0 0 0 0 0 0 0 0 0 0 0 0 0 0 0 0 0 0 0 0 0 0 0 0 0 0 0 0 0 0 0 0 0 0 0
0 0 0 0 0 0 0 0 0 0 0 0 0 0 0 0 0 0 0 0 0 0 0 0 0 0 0 0 0 0 0 0 0 0 0 0 0 0 0 0 0 0 0 0
0 0 0 0 0 0 0 0 0 0 0 0 0 0 0 0 0 0 0 0 0 0 0 0 0 0 0 0 0 0 0 0 0 0 0 0 0 0 0 0 0 0 0 0
0 0 0 0 0 0 0 0 0 0 0 0 0 0 0 0 0 0 0 0 0 0 0 0 0 0 0 0 0 0 0 0 0 0 0 0 0 0 0 0 0 0 0 0
0 0 0 0 0 0 0 0 0 0 0 0 0 0 0 0 0 0 0 0 0 0 0 0 0 0 0 0 0 0 0 0 0 0 0 0 0 0 0 0 0 0 0 0
0 0 0 0 0 0 0 0 0 0 0 0 0 0 0 0 0 0 0 0 0 0 0 0 0 0 0 0 0 0 0 0 0 0 0 0 0 0 0 0 0 0 0 0
0 0 0 0 0 0 0 0 0 0 0 0 0 0 0 0 0 0 0 0 0 0 0 0 0 0 0 0 0 0 0 0 0 0 0 0 0 0 0 0 0 0 0 0
0 0 0 0 0 0 0 0 0 0 0 0 0 0 0 0 0 0 0 0 0 0 0 0 0 0 0 0 0 0 0 0 0 0 0 0 0 0 0 0 0 0 0 0
0 0 0 0 0 0 0 0 0 0 0 0 0 0 0 0 0 0 0 0 0 0 0 0 0 0 0 0 0 0 0 0 0 0 0 0 0 0 0 0 0 0 0 0
0 0 0 0 0 0 0 0 0 0 0 0 0 0 0 0 0 0 0 0 0 0 0 0 0 0 0 0 0 0 0 0 0 0 0 0 0 0 0 0 0 0 0 0
0 0 0 0 0 0 0 0 0 0 0 0 0 0 0 0 0 0 0 0 0 0 0 0 0 0 0 0 0 0 0 0 0 0 0 0 0 0 0 0 0 0 0 0
0 0 0 0 0 0 0 0 0 0 0 0 0 0 0 0 0 0 0 0 0 0 0 0 0 0 0 0 0 0 0 0 0 0 0 0 0 0 0 0 0 0 0 0
0 0 0 0 0 0 0 0 0 0 0 0 0 0 0 0 0 0 0 0 0 0 0 0 0 0 0 0 0 0 0 0 0 0 0 0 0 0 0 0 0 0 0 0
0 0 0 0 0 0 0 0 0 0 0 0 0 0 0 0 0 0 0 0 0 0 0 0 0 0 0 0 0 0 0 0 0 0 0 0 0 0 0 0 0 0 0 0
0 0 0 0 0 0 0 0 0 0 0 0 0 0 0 0 0 0 0 0 0 0 0 0 0 0 0 0 0 0 0 0 0 0 0 0 0 0 0 0 0 0 0 0
0 0 0 0 0 0 0 0 0 0 0 0 0 0 0 0 0 0 0 0 0 0 0 0 0 0 0 0 0 0 0 0 0 0 0 0 0 0 0 0 0 0 0 0
0 0 0 0 0 0 0 0 0 0 0 0 0 0 0 0 0 0 0 0 0 0 0 0 0 0 0 0 0 0 0 0 0 0 0 0 0 0 0 0 0 0 0 0
0 0 0 0 0 0 0 0 0 0 0 0 0 0 0 0 0 0 0 0 0 0 0 0 0 0 0 0 0 0 0 0 0 0 0 0 0 0 0 0 0 0 0 0
0 0 0 0 0 0 0 0 0 0 0 0 0 0 0 0 0 0 0 0 0 0 0 0 0 0 0 0 0 0 0 0 0 0 0 0 0 0 0 0 0 0 0 0
0 0 0 0 0 0 0 0 0 0 0 0 0 0 0 0 0 0 0 0 0 0 0 0 0 0 0 0 0 0 0 0 0 0 0 0 0 0 0 0 0 0 0 0
0 0 0 0 0 0 0 0 0 0 0 0 0 0 0 0 0 0 0 0 0 0 0 0 0 0 0 0 0 0 0 0 0 0 0 0 0 0 0 0 0 0 0 0
0 0 0 0 0 0 0 0 0 0 0 0 0 0 0 0 0 0 0 0 0 0 0 0 0 0 0 0 0 0 0 0 0 0 0 0 0 0 0 0 0 0 0 0
0 0 0 0 0 0 0 0 0 0 0 0 0 0 0 0 0 0 0 0 0 0 0 0 0 0 0 0 0 0 0 0 0 0 0 0 0 0 0 0 0 0 0 0
0 0 0 0 0 0 0 0 0 0 0 0 0 0 0 0 0 0 0 0 0 0 0 0 0 0 0 0 0 0 0 0 0 0 0 0 0 0 0 0 0 0 0 0
0 0 0 0 0 0 0 0 0 0 0 0 0 0 0 0 0 0 0 0 0 0 0 0 0 0 0 0 0 0 0 0 0 0 0 0 0 0 0 0 0 0 0 0
0 0 0 0 0 0 0 0 0 0 0 0 0 0 0 0 0 0 0 0 0 0 0 0 0 0 0 0 0 0 0 0 0 0 0 0 0 0 0 0 0 0 0 0
0 0 0 0 0 0 0 0 0 0 0 0 0 0 0 0 0 0 0 0 0 0 0 0 0 0 0 0 0 0 0 0 0 0 0 0 0 0 0 0 0 0 0 0
Height
5833 5827 5822 5814 5807 5799 5789 5777 5766 5753 5740 5725 5710 5695 5681 5665 5650 5636 5622 5608 5595 5580 5567 5555 5544 5534 5523 5512 5501 5490 5479 5467 5456 5444 5433 5423 5414 5404 5396 5389 5382 5377 5373 5370
5829 5823 5817 5809 5801 5791 5781 5770 5759 5746 5733 5718 5703 5688 5673 5658 5644 5630 5616 5602 5588 5574 5562 5551 5540 5530 5519 5507 5495 5483 5471 5460 5448 5436 5425 5415 5405 5395 5386 5378 5371 5365 5360 5357
5822 5816 5811 5802 5794 5785 5775 5764 5752 5739 5727 5711 5697 5682 5667 5652 5638 5624 5610 5595 5581 5569 5558 5547 5536 5525 5513 5501 5489 5476 5464 5452 5440 5429 5419 5408 5398 5388 5378 5369 5361 5353 5348 5344
5815 5810 5803 5799 5788 5778 5768 5757 5745 5732 5719 5705 5690 5676 5661 5646 5632 5618 5604 5591 5577 5565 5554 5543 5531 5520 5507 5495 5483 5470 5457 5445 5434 5423 5412 5401 5390 5380 5370 5360 5350 5342 5336 5331
5809 5803 5798 5791 5781 5771 5762 5751 5739 5726 5712 5698 5684 5670 5657 5641 5627 5613 5599 5585 5573 5562 5551 5539 5527 5515 5503 5490 5477 5464 5451 5439 5428 5417 5405 5394 5382 5370 5359 5348 5338 5329 5322 5317
5805 5798 5791 5786 5775 5765 5755 5745 5733 5720 5706 5692 5678 5665 5651 5635 5621 5607 5593 5580 5569 5558 5547 5536 5524 5512 5499 5486 5472 5459 5446 5434 5422 5410 5398 5385 5372 5358 5346 5333 5322 5312 5305 5301
5800 5793 5787 5778 5768 5759 5750 5741 5726 5712 5700 5686 5673 5659 5644 5629 5615 5602 5588 5576 5565 5555 5544 5533 5521 5509 5496 5482 5469 5455 5442 5429 5417 5404 5390 5376 5362 5346 5331 5316 5302 5292 5286 5283
5792 5785 5780 5771 5763 5755 5745 5732 5720 5707 5694 5680 5666 5652 5638 5624 5610 5597 5585 5573 5563 5552 5541 5530 5519 5507 5494 5480 5466 5452 5438 5426 5412 5399 5384 5369 5353 5335 5316 5297 5282 5273 5268 5266
5789 5784 5776 5767 5758 5749 5738 5727 5714 5702 5689 5675 5662 5648 5634 5620 5608 5595 5583 5572 5561 5550 5539 5528 5516 5505 5492 5478 5464 5450 5436 5423 5410 5396 5380 5364 5346 5326 5304 5284 5269 5260 5256 5255
5784 5777 5770 5762 5753 5743 5733 5721 5709 5696 5683 5670 5657 5643 5630 5617 5604 5592 5580 5570 5560 5549 5538 5527 5515 5503 5491 5477 5463 5449 5436 5422 5409 5395 5379 5361 5341 5320 5297 5277 5264 5255 5250 5249
5779 5772 5765 5757 5748 5738 5727 5716 5703 5691 5678 5665 5652 5639 5626 5614 5601 5589 5578 5568 5558 5548 5537 5526 5515 5503 5490 5477 5464 5450 5436 5423 5409 5394 5378 5360 5339 5318 5296 5277 5262 5254 5249 5247
5773 5767 5760 5752 5743 5733 5722 5711 5699 5686 5674 5661 5648 5635 5623 5611 5598 5587 5576 5566 5557 5546 5536 5526 5515 5503 5490 5477 5464 5451 5438 5424 5410 5395 5379 5361 5343 5323 5302 5283 5268 5257 5251 5248
5768 5761 5754 5746 5737 5728 5717 5706 5694 5681 5669 5657 5644 5632 5620 5608 5596 5585 5575 5565 5556 5546 5536 5526 5515 5503 5491 5479 5466 5453 5440 5426 5411 5396 5380 5364 5348 5331 5312 5294 5277 5265 5257 5252
5762 5755 5748 5740 5732 5722 5712 5701 5689 5677 5665 5653 5641 5629 5617 5605 5594 5583 5573 5565 5555 5546 5536 5526 5515 5504 5493 5481 5469 5456 5443 5428 5414 5399 5384 5369 5354 5338 5322 5305 5290 5276 5266 5259
5756 5750 5743 5735 5726 5717 5707 5695 5684 5672 5661 5649 5637 5626 5615 5604 5593 5582 5573 5564 5555 5545 5536 5526 5516 5506 5495 5483 5472 5459 5447 5433 5418 5404 5389 5375 5361 5346 5332 5317 5303 5289 5278 5269
5750 5744 5736 5729 5721 5711 5701 5690 5679 5668 5657 5645 5634 5623 5612 5602 5591 5582 5573 5564 5555 5546 5537 5527 5517 5507 5497 5486 5475 5463 5450 5437 5423 5410 5397 5384 5370 5356 5342 5329 5316 5304 5292 5282
5744 5738 5731 5723 5715 5706 5696 5685 5674 5663 5653 5642 5631 5620 5609 5599 5590 5580 5572 5564 5555 5547 5537 5528 5518 5509 5499 5489 5478 5467 5455 5442 5430 5418 5405 5392 5379 5366 5353 5340 5328 5317 5306 5296
5738 5732 5725 5718 5709 5700 5690 5680 5670 5659 5649 5638 5628 5617 5607 5597 5587 5577 5569 5561 5554 5546 5537 5528 5519 5510 5501 5491 5482 5471 5459 5448 5436 5424 5413 5401 5388 5376 5363 5351 5339 5329 5318 5309
5731 5725 5718 5711 5703 5695 5685 5675 5665 5655 5645 5635 5625 5615 5606 5596 5586 5577 5569 5561 5553 5545 5537 5529 5521 5512 5503 5494 5485 5475 5464 5453 5442 5431 5420 5409 5397 5386 5374 5362 5350 5340 5330 5320
5725 5719 5712 5705 5697 5689 5680 5670 5660 5651 5641 5631 5622 5612 5603 5595 5586 5578 5570 5562 5555 5547 5539 5531 5523 5514 5506 5497 5488 5478 5468 5458 5448 5438 5427 5417 5406 5395 5384 5372 5361 5351 5341 5331
5718 5712 5705 5699 5691 5683 5674 5665 5656 5647 5637 5628 5619 5610 5601 5593 5584 5576 5568 5561 5555 5547 5540 5532 5525 5517 5509 5500 5491 5482 5473 5463 5454 5444 5434 5424 5414 5404 5393 5382 5372 5362 5352 5342
5711 5705 5699 5692 5685 5677 5668 5659 5651 5642 5633 5624 5616 5607 5599 5591 5583 5575 5567 5561 5554 5547 5541 5534 5526 5519 5511 5502 5494 5485 5477 5468 5459 5450 5441 5431 5422 5412 5402 5392 5382 5372 5362 5353
5704 5698 5692 5686 5679 5671 5662 5654 5646 5637 5629 5621 5613 5605 5597 5590 5582 5575 5567 5560 5554 5548 5542 5535 5528 5521 5513 5505 5497 5489 5481 5472 5464 5456 5447 5438 5429 5419 5410 5401 5391 5381 5372 5363
5696 5691 5685 5679 5672 5664 5657 5648 5640 5633 5625 5617 5609 5602 5594 5587 5580 5572 5565 5559 5553 5547 5542 5536 5529 5523 5515 5508 5500 5492 5485 5477 5469 5461 5452 5444 5435 5426 5418 5409 5400 5391 5381 5372
5689 5684 5678 5672 5665 5658 5650 5642 5635 5628 5620 5613 5606 5598 5591 5584 5578 5571 5564 5558 5552 5547 5542 5536 5530 5524 5517 5511 5503 5496 5489 5481 5473 5465 5457 5449 5441 5433 5425 5416 5408 5399 5390 5381
5681 5676 5671 5665 5658 5651 5644 5636 5630 5623 5616 5609 5602 5595 5588 5582 5575 5569 5563 5556 5551 5546 5541 5536 5531 5525 5519 5513 5506 5499 5492 5485 5477 5470 5462 5454 5446 5439 5431 5423 5415 5407 5398 5390
5673 5668 5663 5657 5651 5644 5637 5630 5624 5617 5611 5604 5598 5591 5585 5579 5573 5567 5561 5555 5549 5544 5539 5535 5530 5525 5520 5515 5509 5502 5495 5488 5481 5474 5467 5459 5452 5444 5437 5429 5421 5413 5405 5397
Wind_Speed
28 31 34 38 42 46 50 55 61 65 69 70 72 73 73 72 68 65 64 64 65 62 57 52 49 48 48 49 50 51 51 51 51 50 48 46 45 43 42 40 38 37 36 36
29 32 34 38 43 47 52 57 63 67 70 72 72 73 72 70 67 64 64 64 62 58 52 49 48 49 50 51 52 53 52 52 51 49 48 46 45 43 42 40 38 36 34 33
33 35 37 40 46 49 52 58 64 68 71 73 72 72 71 68 65 63 63 63 59 53 49 48 49 50 52 53 53 54 54 52 50 48 48 47 46 45 43 42 39 37 34 32
35 38 40 43 46 50 54 60 65 69 72 72 72 71 69 65 63 63 63 60 55 49 48 49 50 52 53 54 55 55 54 52 49 49 49 49 48 48 47 46 43 40 36 32
37 39 41 43 47 51 56 61 66 70 71 71 71 70 67 64 63 62 61 57 51 48 48 49 51 52 54 55 56 56 54 51 50 50 51 51 51 51 50 49 48 44 39 33
37 39 42 45 48 52 57 63 66 69 70 70 70 68 66 64 62 61 59 53 49 48 49 50 51 52 54 56 56 56 53 51 52 53 54 55 55 55 54 54 52 47 40 33
37 39 41 45 50 54 58 63 67 69 69 69 69 67 64 62 61 60 56 51 48 48 49 50 51 53 55 56 57 56 53 52 53 55 57 58 59 59 60 58 52 44 37 30
39 42 45 47 49 53 58 63 66 67 68 68 67 65 62 61 60 58 53 49 48 49 50 50 51 53 55 56 56 55 54 53 54 57 59 61 62 64 64 58 47 37 28 24
38 40 42 45 49 53 58 63 65 67 67 67 66 64 61 60 59 56 51 47 47 48 49 50 51 53 55 56 56 55 54 54 55 58 60 62 65 68 66 55 40 29 21 16
37 40 42 45 49 54 58 62 65 66 66 66 64 62 59 58 57 54 49 47 47 48 48 49 51 53 55 56 56 56 55 55 55 57 60 63 67 70 67 54 39 27 17 11
37 39 41 45 49 54 58 62 64 65 65 64 63 60 58 57 56 52 48 46 46 47 47 48 50 52 54 55 56 57 56 55 56 58 61 64 69 72 70 58 43 31 18 9
38 39 41 45 49 53 58 62 63 64 63 63 61 59 57 56 54 50 47 45 46 46 46 46 49 51 53 55 57 57 57 56 57 59 61 64 67 70 71 63 49 35 23 13
37 39 41 45 49 53 58 61 62 62 62 61 60 57 56 55 53 49 46 44 45 45 45 45 47 50 52 54 56 57 58 58 58 59 61 63 65 68 69 67 57 44 31 20
37 39 42 46 49 53 57 60 61 61 61 59 58 56 55 54 51 47 44 43 44 44 44 44 46 48 50 53 55 56 57 59 60 61 61 62 63 65 67 68 63 54 42 30
37 39 42 46 49 53 57 59 60 59 59 58 57 55 54 53 50 46 43 42 43 43 43 43 44 46 48 50 53 55 56 58 60 62 62 62 62 63 64 65 65 61 53 44
38 40 43 46 49 52 56 59 59 58 58 57 55 54 53 51 49 45 42 40 41 41 41 42 43 45 46 48 51 53 55 57 59 61 61 61 61 61 61 61 61 61 59 53
39 41 43 46 48 52 56 58 57 57 56 55 54 53 51 50 48 45 42 40 39 40 41 41 42 43 44 46 48 51 53 55 57 58 59 60 61 61 61 60 59 58 58 57
39 41 43 45 48 52 55 56 56 55 55 54 53 51 50 49 47 44 41 39 39 40 40 41 41 41 42 44 46 49 51 53 54 56 57 58 59 60 60 60 59 57 55 54
39 41 43 45 48 51 54 55 55 54 53 52 51 50 49 48 46 42 39 38 37 38 39 39 39 40 41 42 43 46 49 51 52 53 55 56 57 58 59 60 59 58 56 54
40 41 43 45 48 51 53 54 53 52 52 51 50 49 48 47 45 42 38 36 35 35 36 37 38 39 39 40 41 43 46 48 50 51 52 54 55 56 57 58 59 58 57 55
40 41 43 45 47 50 52 53 52 51 50 50 49 47 46 46 44 41 38 35 34 34 35 36 36 37 38 39 40 41 43 45 47 49 50 51 53 54 55 56 57 58 57 57
40 41 43 45 47 50 51 52 50 49 49 48 47 46 45 44 43 40 37 34 32 32 33 34 35 36 37 38 39 40 41 43 44 46 48 49 50 51 53 54 55 55 56 56
39 41 43 45 47 49 51 50 49 48 48 47 46 45 43 43 42 40 36 33 31 30 31 32 33 34 36 37 38 39 39 40 42 43 45 47 48 49 50 51 52 53 54 55
40 41 43 44 46 49 50 49 47 47 46 45 45 44 42 41 41 39 36 32 29 29 29 30 31 32 34 36 37 38 38 39 40 41 43 45 46 47 48 49 50 51 52 53
40 41 43 44 46 48 48 48 46 45 45 44 43 42 40 39 39 38 36 32 29 27 27 27 28 30 32 34 36 37 38 39 40 41 41 42 44 45 46 46 47 48 49 50
40 41 42 44 46 47 47 47 45 44 43 43 42 41 39 38 37 37 35 32 29 26 25 25 26 27 29 31 33 35 37 39 40 41 41 41 42 43 43 44 45 46 46 47
39 40 42 44 46 47 47 46 44 42 42 42 41 40 38 37 36 35 34 32 29 26 24 23 23 24 26 28 30 32 34 36 38 40 41 42 42 42 42 42 43 44 44 45
Wind_Direction
327 329 329 328 329 333 337 338 339 340 340 341 342 342 341 341 340 339 338 336 335 336 339 342 343 343 342 340 339 338 337 336 335 334 333 332 330 326 321 315 308 301 292 281
326 327 330 328 332 337 339 339 339 340 341 342 342 342 342 342 341 340 339 337 338 341 343 345 345 344 343 341 340 339 339 338 338 338 338 338 337 334 329 323 315 308 298 287
328 330 333 334 338 338 340 340 341 341 341 342 342 342 342 342 341 341 340 339 341 344 346 346 346 345 344 343 342 341 341 341 341 341 340 340 339 338 335 331 324 314 305 293
329 332 336 337 337 339 341 341 341 341 341 342 342 343 343 343 342 342 341 342 344 347 348 347 346 346 345 345 344 343 343 343 344 343 342 340 338 335 333 332 328 322 311 297
330 332 335 336 339 340 341 341 341 341 342 342 342 342 343 344 343 342 342 344 347 349 349 348 347 347 347 346 346 345 345 345 345 345 343 341 338 335 332 329 325 320 313 301
329 332 335 338 339 341 342 340 341 341 342 342 342 343 345 345 344 344 345 347 349 350 350 349 349 349 349 348 348 348 348 347 347 346 345 343 340 337 333 328 323 317 308 298
330 333 335 338 340 341 340 340 341 342 342 342 343 344 345 346 345 345 347 349 350 351 351 351 351 351 351 351 351 351 351 350 349 348 347 346 343 339 335 330 323 315 305 292
333 335 337 338 338 339 339 340 341 341 342 343 344 345 346 347 346 347 348 350 351 351 351 352 353 354 354 354 354 354 354 353 352 351 350 349 347 344 341 336 329 320 305 286
332 333 334 335 337 338 339 340 340 341 342 343 345 346 347 347 347 348 350 351 352 352 352 353 355 356 356 357 358 358 357 357 355 354 354 353 352 351 349 346 342 333 316 287
330 331 333 334 336 338 339 339 340 342 343 344 346 347 348 348 348 349 351 352 353 353 354 355 356 357 359 0 1 1 1 360 358 358 359 358 359 359 359 358 356 350 336 303
329 330 332 334 335 337 338 339 340 342 343 345 346 348 349 349 349 351 352 353 354 355 355 357 358 359 1 3 4 4 4 3 2 2 3 4 5 6 7 7 6 4 358 338
327 329 331 333 334 336 338 339 341 342 344 345 347 348 349 350 351 352 353 354 355 356 357 358 360 2 4 5 6 6 6 6 6 7 7 9 10 11 12 14 14 13 12 7
325 327 329 332 334 336 337 339 341 343 344 346 348 349 350 351 352 353 354 355 356 357 359 360 1 4 6 7 8 8 8 10 10 11 11 12 14 15 17 19 20 21 21 21
324 326 329 331 333 335 337 339 341 343 344 346 348 350 351 352 353 353 354 355 357 359 0 1 3 5 7 9 10 10 11 12 14 14 14 15 16 18 20 23 25 27 28 28
323 325 328 330 332 335 337 339 341 343 344 346 348 350 352 352 353 354 355 356 357 360 1 2 4 6 8 9 11 11 12 15 16 17 17 18 19 20 22 24 27 29 32 33
322 324 327 329 332 334 337 339 341 343 344 346 349 350 352 353 354 355 355 356 359 0 2 4 5 7 8 10 11 12 13 16 18 19 20 20 21 23 24 26 28 30 33 35
320 323 325 328 331 334 336 339 340 342 344 346 349 350 352 353 354 354 355 357 360 2 4 5 7 7 8 11 11 13 15 17 19 20 20 22 23 25 26 27 28 30 32 35
319 321 324 327 331 333 336 338 340 342 344 347 349 350 352 353 354 354 355 357 359 2 5 7 8 8 9 10 11 13 16 17 19 20 21 22 24 26 27 29 29 30 31 33
318 321 323 327 330 333 335 337 339 342 344 346 348 350 352 353 354 354 355 356 359 2 5 8 8 9 10 10 11 14 17 18 19 20 21 23 25 26 28 30 30 31 31 32
317 320 323 326 330 332 334 336 339 341 343 346 348 349 352 353 354 354 355 355 358 2 6 8 10 11 10 10 12 15 17 18 20 21 21 23 24 26 28 30 31 32 32 32
316 319 322 326 329 331 333 335 338 340 343 345 347 349 351 352 354 354 354 355 358 2 7 9 11 12 12 13 14 16 17 18 20 21 22 23 24 25 27 29 30 31 32 32
315 318 322 325 327 330 332 334 336 339 342 344 346 348 350 352 353 353 353 354 357 1 6 9 12 13 14 15 16 17 17 18 20 20 22 23 24 24 26 27 29 30 31 31
314 317 320 323 326 328 331 333 335 338 340 342 345 347 348 350 352 352 353 354 355 359 3 8 11 14 16 17 17 18 18 18 19 20 21 23 24 25 25 26 28 29 30 30
312 316 319 322 324 327 329 332 334 337 339 341 343 345 346 349 351 352 352 352 353 356 0 5 10 13 17 19 20 20 20 19 19 20 21 22 23 24 25 25 27 28 28 29
311 314 317 320 323 325 328 330 332 335 337 339 342 344 344 346 349 350 351 351 351 353 357 2 7 12 16 19 21 22 22 22 22 21 21 21 22 23 23 23 25 26 26 27
310 313 316 318 321 324 326 328 330 333 335 337 339 342 342 343 346 348 349 349 349 349 352 356 2 7 11 15 18 21 22 23 24 23 22 22 22 22 22 22 23 24 24 25
309 312 314 317 320 322 324 325 328 331 333 335 337 339 340 341 343 345 347 347 347 345 346 349 354 360 4 8 13 16 19 20 21 22 22 22 22 22 21 20 21 22 23 24